EW8865 Weather Reports


time (UTC)temp
C
wind
direction
speed
KPH
gust
KPH
rain 1hr
cm
rain 24hr
cm
rain mn
cm
humidity
%
barometer
mb
20260509143004 20 89 9.7 19.3 0.00 0.00 0.00 53 1016.1
20260509142503 20 86 6.4 16.1 0.00 0.00 0.00 55 1016.1
20260509142004 20 75 4.8 11.3 0.00 0.00 0.00 54 1016.1
20260509141003 20 107 8.0 19.3 0.00 0.00 0.00 54 1016.2
20260509140503 20 92 8.0 19.3 0.00 0.00 0.00 52 1016.2
20260509140004 20 100 11.3 20.9 0.00 0.00 0.00 51 1016.2
20260509135504 20 108 9.7 19.3 0.00 0.00 0.00 54 1016.2
20260509135004 20 63 8.0 14.5 0.00 0.00 0.00 54 1016.2
20260509134504 20 86 14.5 22.5 0.00 0.00 0.00 51 1016.2
20260509134004 20 108 8.0 19.3 0.00 0.00 0.00 51 1016.2
20260509133503 20 91 8.0 16.1 0.00 0.00 0.00 53 1016.1
20260509133004 20 91 8.0 12.9 0.00 0.00 0.00 53 1016.2
20260509132504 20 100 8.0 16.1 0.00 0.00 0.00 53 1016.2
20260509132004 20 94 9.7 16.1 0.00 0.00 0.00 52 1016.2
20260509131503 20 118 9.7 16.1 0.00 0.00 0.00 51 1016.3
20260509131003 20 126 11.3 19.3 0.00 0.00 0.00 50 1016.3
20260509130504 20 92 11.3 19.3 0.00 0.00 0.00 52 1016.3
20260509125503 20 88 9.7 19.3 0.00 0.00 0.00 52 1016.4
20260509125003 20 110 9.7 14.5 0.00 0.00 0.00 51 1016.3
20260509124503 20 52 6.4 16.1 0.00 0.00 0.00 54 1016.4
20260509124004 20 71 8.0 19.3 0.00 0.00 0.00 50 1016.4
20260509123503 21 75 8.0 16.1 0.00 0.00 0.00 50 1016.5
20260509122505 21 109 11.3 19.3 0.00 0.00 0.00 52 1016.6
20260509122004 21 89 8.0 16.1 0.00 0.00 0.00 54 1016.7
20260509121504 21 116 9.7 24.1 0.00 0.00 0.00 50 1016.6
20260509121004 21 84 8.0 16.1 0.00 0.00 0.00 54 1016.7
20260509120503 20 114 9.7 20.9 0.00 0.00 0.00 53 1016.7
20260509115503 20 72 8.0 20.9 0.00 0.00 0.00 55 1016.8
20260509115003 20 98 9.7 19.3 0.00 0.00 0.00 54 1016.9
20260509114504 20 92 8.0 19.3 0.00 0.00 0.00 56 1016.9
20260509114003 20 88 9.7 19.3 0.00 0.00 0.00 52 1016.9
20260509113504 20 85 6.4 14.5 0.00 0.00 0.00 58 1017.0
20260509113003 20 55 8.0 19.3 0.00 0.00 0.00 57 1017.1
20260509112504 20 57 9.7 16.1 0.00 0.00 0.00 56 1017.1
20260509112003 19 103 8.0 16.1 0.00 0.00 0.00 54 1017.2
20260509111003 19 82 11.3 19.3 0.00 0.00 0.00 54 1017.3
20260509110503 19 92 8.0 20.9 0.00 0.00 0.00 55 1017.3
20260509110004 19 78 9.7 19.3 0.00 0.00 0.00 54 1017.3
20260509105504 18 104 6.4 16.1 0.00 0.00 0.00 57 1017.3
20260509104504 18 76 9.7 19.3 0.00 0.00 0.00 54 1017.4
20260509104003 18 119 11.3 19.3 0.00 0.00 0.00 56 1017.4
20260509103503 19 96 11.3 19.3 0.00 0.00 0.00 55 1017.4
20260509102504 18 104 8.0 16.1 0.00 0.00 0.00 57 1017.5
20260509102004 18 65 12.9 19.3 0.00 0.00 0.00 55 1017.5
20260509101004 18 81 8.0 19.3 0.00 0.00 0.00 58 1017.5
20260509100505 18 107 6.4 19.3 0.00 0.00 0.00 59 1017.5
20260509100005 18 109 11.3 19.3 0.00 0.00 0.00 58 1017.5
20260509095503 17 89 11.3 14.5 0.00 0.00 0.00 58 1017.6
20260509095004 17 113 9.7 16.1 0.00 0.00 0.00 58 1017.6
20260509094504 17 109 12.9 19.3 0.00 0.00 0.00 56 1017.6
20260509093503 17 107 9.7 19.3 0.00 0.00 0.00 57 1017.6
20260509093003 17 96 6.4 14.5 0.00 0.00 0.00 60 1017.6
20260509092503 17 108 8.0 16.1 0.00 0.00 0.00 58 1017.6
20260509092004 17 90 11.3 19.3 0.00 0.00 0.00 58 1017.6
20260509091504 17 78 9.7 16.1 0.00 0.00 0.00 57 1017.5
20260509091004 17 95 9.7 16.1 0.00 0.00 0.00 59 1017.5
20260509090503 17 92 9.7 14.5 0.00 0.00 0.00 58 1017.6
20260509090004 17 98 4.8 12.9 0.00 0.00 0.00 61 1017.5
20260509085504 17 127 6.4 12.9 0.00 0.00 0.00 63 1017.6
20260509085004 17 123 9.7 16.1 0.00 0.00 0.00 60 1017.5
20260509084005 17 102 9.7 14.5 0.00 0.00 0.00 62 1017.5
20260509083004 17 90 9.7 16.1 0.00 0.00 0.00 61 1017.5
20260509082503 17 77 4.8 14.5 0.00 0.00 0.00 65 1017.5
20260509082004 17 56 8.0 14.5 0.00 0.00 0.00 64 1017.5
20260509081504 16 64 4.8 11.3 0.00 0.00 0.00 63 1017.6
20260509081004 16 80 4.8 12.9 0.00 0.00 0.00 66 1017.7
20260509080004 16 74 4.8 16.1 0.00 0.00 0.00 66 1017.7
20260509075505 16 92 8.0 14.5 0.00 0.00 0.00 66 1017.7
20260509075004 16 93 4.8 12.9 0.00 0.00 0.00 67 1017.7
20260509074505 15 97 4.8 11.3 0.00 0.00 0.00 67 1017.7
20260509074003 15 121 3.2 4.8 0.00 0.00 0.00 71 1017.7
20260509073503 15 121 1.6 4.8 0.00 0.00 0.00 72 1017.7
20260509073006 14 121 1.6 4.8 0.00 0.00 0.00 72 1017.7
20260509072004 13 123 1.6 4.8 0.00 0.00 0.00 78 1017.7
20260509071004 12 109 3.2 4.8 0.00 0.00 0.00 82 1017.6
20260509070503 12 109 1.6 4.8 0.00 0.00 0.00 85 1017.7
20260509065503 10 109 3.2 4.8 0.00 0.00 0.00 89 1017.6
20260509065003 10 109 1.6 3.2 0.00 0.00 0.00 89 1017.6
20260509064504 10 109 0.0 3.2 0.00 0.00 0.00 90 1017.6
20260509064004 10 109 1.6 4.8 0.00 0.00 0.00 91 1017.7
20260509063504 9 109 3.2 4.8 0.00 0.00 0.00 91 1017.7
20260509063004 9 109 3.2 4.8 0.00 0.00 0.00 91 1017.6
20260509062504 8 110 1.6 4.8 0.00 0.00 0.00 92 1017.6
20260509062003 8 110 1.6 4.8 0.00 0.00 0.00 92 1017.5
20260509061505 8 110 1.6 3.2 0.00 0.00 0.00 93 1017.5
20260509061004 8 111 1.6 3.2 0.00 0.00 0.00 93 1017.5
20260509060504 7 111 1.6 4.8 0.00 0.00 0.00 93 1017.5
20260509060004 7 111 0.0 0.0 0.00 0.00 0.00 92 1017.5
20260509055504 7 111 0.0 0.0 0.00 0.00 0.00 92 1017.4
20260509054004 6 111 0.0 1.6 0.00 0.00 0.00 92 1017.4
20260509053505 6 108 0.0 1.6 0.00 0.00 0.00 92 1017.4
20260509053003 6 188 1.6 1.6 0.00 0.00 0.00 92 1017.4
20260509052503 6 188 0.0 3.2 0.00 0.00 0.00 91 1017.3
20260509052004 6 188 0.0 3.2 0.00 0.00 0.00 91 1017.3
20260509051503 6 188 1.6 3.2 0.00 0.00 0.00 91 1017.4
20260509051004 6 188 0.0 3.2 0.00 0.00 0.00 91 1017.3
20260509050503 5 188 0.0 0.0 0.00 0.00 0.00 90 1017.3
20260509050004 5 185 0.0 0.0 0.00 0.00 0.00 90 1017.3
20260509045503 5 185 0.0 0.0 0.00 0.00 0.00 90 1017.3
20260509045004 5 185 0.0 3.2 0.00 0.00 0.00 90 1017.4
20260509044504 5 161 1.6 3.2 0.00 0.00 0.00 90 1017.4
20260509044003 5 132 0.0 1.6 0.00 0.00 0.00 90 1017.4
20260509043003 6 132 0.0 1.6 0.00 0.00 0.00 90 1017.4
20260509042505 6 127 0.0 3.2 0.00 0.00 0.00 89 1017.4
20260509042004 6 122 0.0 1.6 0.00 0.00 0.00 90 1017.3
20260509041504 6 122 0.0 1.6 0.00 0.00 0.00 89 1017.3
20260509041004 6 122 0.0 3.2 0.00 0.00 0.00 89 1017.3
20260509040504 6 122 0.0 3.2 0.00 0.00 0.00 89 1017.2
20260509040004 6 122 0.0 3.2 0.00 0.00 0.00 90 1017.2
20260509035004 6 122 3.2 4.8 0.00 0.00 0.00 90 1017.2
20260509034504 6 122 0.0 0.0 0.00 0.00 0.00 89 1017.1
20260509034004 6 122 0.0 0.0 0.00 0.00 0.00 89 1017.1
20260509033504 6 122 0.0 0.0 0.00 0.00 0.00 89 1017.2
20260509032503 6 122 0.0 1.6 0.00 0.00 0.00 89 1017.2
20260509032004 6 122 0.0 0.0 0.00 0.00 0.00 89 1017.1
20260509030003 7 122 0.0 1.6 0.00 0.00 0.00 90 1017.1
20260509025004 7 122 1.6 3.2 0.00 0.00 0.00 90 1017.2
20260509024504 7 122 3.2 4.8 0.00 0.00 0.00 90 1017.2
20260509024004 7 122 3.2 4.8 0.00 0.00 0.00 90 1017.2
20260509023505 7 205 0.0 3.2 0.00 0.00 0.00 89 1017.1
20260509023004 6 215 0.0 0.0 0.00 0.00 0.00 89 1017.1
20260509022504 7 215 0.0 0.0 0.00 0.00 0.00 89 1017.1
20260509022004 7 215 0.0 0.0 0.00 0.00 0.00 88 1017.1
20260509021504 7 215 0.0 0.0 0.00 0.00 0.00 88 1017.0
20260509020504 7 215 0.0 0.0 0.00 0.00 0.00 88 1017.1
20260509020004 7 215 0.0 1.6 0.00 0.00 0.00 88 1017.1
20260509015503 7 215 0.0 3.2 0.00 0.00 0.00 88 1017.0
20260509015003 7 215 1.6 3.2 0.00 0.00 0.00 88 1017.1
20260509014503 7 215 1.6 1.6 0.00 0.00 0.00 88 1017.1
20260509013503 7 215 1.6 1.6 0.00 0.00 0.00 88 1017.1
20260509013003 7 215 0.0 3.2 0.00 0.00 0.00 88 1017.1
20260509012503 7 215 1.6 3.2 0.00 0.00 0.00 88 1017.1
20260509012005 7 215 0.0 1.6 0.00 0.00 0.00 88 1017.1
20260509011504 7 215 1.6 3.2 0.00 0.00 0.00 88 1017.1
20260509011004 7 215 1.6 3.2 0.00 0.00 0.00 87 1017.1
20260509010504 7 215 0.0 0.0 0.00 0.00 0.00 87 1017.1
20260509010004 7 215 0.0 0.0 0.00 0.00 0.00 87 1017.1
20260509005504 8 215 0.0 0.0 0.00 0.00 0.00 87 1017.1
20260509004504 8 215 0.0 1.6 0.00 0.03 0.00 87 1017.1
20260509004003 8 215 0.0 0.0 0.00 0.05 0.00 87 1017.0
20260509003504 8 215 0.0 0.0 0.00 0.05 0.00 87 1017.1
20260509003004 8 215 0.0 0.0 0.00 0.05 0.00 87 1017.1
20260509002503 8 215 0.0 1.6 0.00 0.05 0.00 87 1017.1
20260509002004 8 215 1.6 1.6 0.00 0.05 0.00 87 1017.1
20260509001003 8 215 0.0 0.0 0.00 0.05 0.00 86 1017.1
20260509000503 8 215 0.0 0.0 0.00 0.05 0.00 86 1017.1
20260509000004 8 215 0.0 0.0 0.00 0.05 0.00 86 1017.2
20260508235503 8 215 0.0 0.0 0.00 0.05 0.00 86 1017.2
20260508235003 8 215 0.0 1.6 0.00 0.05 0.00 85 1017.2
20260508234504 8 215 0.0 3.2 0.00 0.05 0.00 85 1017.1
20260508234004 8 215 1.6 3.2 0.00 0.05 0.00 85 1017.2
20260508233004 8 215 0.0 3.2 0.00 0.05 0.00 85 1017.1
20260508232003 9 215 0.0 1.6 0.00 0.05 0.00 84 1017.2
20260508231504 9 215 0.0 0.0 0.00 0.05 0.00 84 1017.2
20260508231003 9 215 0.0 3.2 0.00 0.05 0.00 84 1017.3
20260508230503 9 215 0.0 1.6 0.00 0.05 0.00 84 1017.2
20260508230004 9 215 0.0 0.0 0.00 0.05 0.00 84 1017.2
20260508225503 9 215 1.6 3.2 0.00 0.05 0.05 84 1017.2
20260508225004 9 215 1.6 3.2 0.00 0.05 0.05 83 1017.2
20260508224504 9 215 0.0 1.6 0.00 0.05 0.05 83 1017.1
20260508224003 10 215 0.0 1.6 0.00 0.05 0.05 83 1017.1
20260508223504 10 215 0.0 0.0 0.00 0.05 0.05 82 1017.1
20260508223003 10 215 0.0 1.6 0.00 0.05 0.05 82 1017.1
20260508222504 10 215 0.0 0.0 0.00 0.05 0.05 81 1017.1
20260508221503 10 215 1.6 1.6 0.00 0.05 0.05 81 1017.1
20260508221004 10 215 0.0 0.0 0.00 0.05 0.05 81 1017.1
20260508220503 10 215 0.0 0.0 0.00 0.05 0.05 80 1017.1
20260508220004 10 215 0.0 1.6 0.00 0.05 0.05 80 1017.0
20260508215504 10 215 1.6 3.2 0.00 0.05 0.05 80 1017.0
20260508215004 10 215 0.0 3.2 0.00 0.05 0.05 80 1016.9
20260508214504 10 215 0.0 3.2 0.00 0.05 0.05 79 1016.9
20260508213504 11 215 1.6 4.8 0.00 0.05 0.05 79 1016.9
20260508212503 11 215 0.0 3.2 0.00 0.05 0.05 79 1016.8
20260508211503 11 213 3.2 4.8 0.00 0.05 0.05 79 1016.7
20260508211003 11 213 3.2 4.8 0.00 0.05 0.05 79 1016.7
20260508210003 11 212 4.8 4.8 0.00 0.05 0.05 78 1016.7
20260508205003 11 216 1.6 3.2 0.00 0.05 0.05 76 1016.4
20260508204003 12 216 0.0 0.0 0.00 0.05 0.05 75 1016.3
20260508203504 12 216 0.0 0.0 0.00 0.05 0.05 75 1016.3
20260508203004 12 216 0.0 0.0 0.00 0.05 0.05 74 1016.3
20260508202504 12 216 0.0 1.6 0.00 0.05 0.05 74 1016.2
20260508202004 12 216 1.6 3.2 0.00 0.05 0.05 73 1016.1
20260508200504 13 216 0.0 3.2 0.00 0.05 0.05 72 1016.0
20260508200004 13 216 1.6 4.8 0.00 0.05 0.05 72 1016.0
20260508195503 13 216 1.6 4.8 0.00 0.05 0.05 71 1015.9
20260508195003 13 215 3.2 4.8 0.00 0.05 0.05 70 1015.9
20260508193503 14 215 3.2 4.8 0.00 0.05 0.05 69 1015.8
20260508193004 14 213 1.6 3.2 0.00 0.05 0.05 68 1015.8
20260508192504 14 207 3.2 4.8 0.00 0.05 0.05 68 1015.7
20260508191504 15 210 4.8 9.7 0.00 0.05 0.05 67 1015.5
20260508191004 15 221 3.2 8.0 0.00 0.05 0.05 66 1015.5
20260508190503 15 222 4.8 9.7 0.00 0.05 0.05 66 1015.4
20260508190004 15 231 8.0 11.3 0.00 0.05 0.05 65 1015.3
20260508185503 15 248 4.8 9.7 0.00 0.05 0.05 64 1015.2
20260508184504 16 253 8.0 11.3 0.00 0.05 0.05 62 1015.2
20260508184003 16 238 9.7 16.1 0.00 0.05 0.05 60 1015.2
20260508183503 16 211 3.2 8.0 0.00 0.05 0.05 56 1015.1
20260508183004 17 208 3.2 9.7 0.00 0.05 0.05 56 1015.1
20260508182504 17 207 4.8 4.8 0.00 0.05 0.05 55 1015.0
20260508182004 17 207 1.6 4.8 0.00 0.05 0.05 55 1015.0
20260508181004 17 210 9.7 11.3 0.00 0.05 0.05 54 1014.9
20260508180504 17 199 8.0 9.7 0.00 0.05 0.05 53 1014.9
20260508180004 17 197 4.8 9.7 0.00 0.05 0.05 51 1014.8
20260508175503 18 202 8.0 11.3 0.00 0.05 0.05 51 1014.8
20260508175004 18 228 6.4 9.7 0.00 0.05 0.05 51 1014.8
20260508174503 18 188 6.4 11.3 0.00 0.05 0.05 50 1014.7
20260508174004 18 200 4.8 9.7 0.00 0.05 0.05 49 1014.7
20260508173504 18 207 4.8 8.0 0.00 0.05 0.05 49 1014.6
20260508173004 18 207 3.2 12.9 0.00 0.05 0.05 48 1014.6
20260508172503 19 176 3.2 12.9 0.00 0.05 0.05 48 1014.6
20260508172003 19 182 4.8 9.7 0.00 0.05 0.05 47 1014.5
20260508171504 19 176 8.0 11.3 0.00 0.05 0.05 47 1014.5
20260508171003 19 169 4.8 11.3 0.00 0.05 0.05 48 1014.4
20260508170503 19 210 4.8 8.0 0.00 0.05 0.05 49 1014.3
20260508170003 19 193 4.8 11.3 0.00 0.05 0.05 48 1014.3
20260508165504 19 190 4.8 11.3 0.00 0.05 0.05 48 1014.2
20260508165003 19 127 4.8 11.3 0.00 0.05 0.05 47 1014.2
20260508164504 19 119 3.2 11.3 0.00 0.05 0.05 47 1014.3
20260508164003 19 197 1.6 9.7 0.00 0.05 0.05 49 1014.3
20260508163503 19 180 3.2 16.1 0.00 0.05 0.05 49 1014.3
20260508163004 19 253 4.8 11.3 0.00 0.05 0.05 50 1014.3
20260508162504 19 229 6.4 14.5 0.00 0.05 0.05 50 1014.3
20260508162003 19 207 8.0 14.5 0.00 0.05 0.05 48 1014.3
20260508161504 18 156 6.4 14.5 0.00 0.05 0.05 50 1014.3
20260508160503 18 190 4.8 11.3 0.00 0.05 0.05 50 1014.4
20260508160004 18 216 8.0 9.7 0.00 0.05 0.05 49 1014.4
20260508155503 18 214 8.0 16.1 0.00 0.05 0.05 49 1014.4
20260508155004 18 181 9.7 19.3 0.00 0.05 0.05 50 1014.4
20260508154503 18 147 9.7 16.1 0.00 0.05 0.05 49 1014.4
20260508154003 18 191 11.3 16.1 0.00 0.05 0.05 50 1014.5
20260508153004 18 136 9.7 16.1 0.00 0.05 0.05 51 1014.5
20260508152503 18 158 11.3 19.3 0.00 0.05 0.05 49 1014.5
20260508152003 18 126 8.0 12.9 0.00 0.05 0.05 51 1014.4
20260508151503 18 134 4.8 19.3 0.00 0.05 0.05 51 1014.4
20260508151005 18 145 11.3 19.3 0.00 0.05 0.05 51 1014.6
20260508150504 18 144 9.7 19.3 0.00 0.05 0.05 50 1014.5
20260508150004 19 162 8.0 20.9 0.00 0.05 0.05 50 1014.5
20260508145503 19 166 14.5 24.1 0.00 0.05 0.05 50 1014.5
20260508145004 19 194 9.7 19.3 0.00 0.05 0.05 50 1014.6
20260508144503 20 165 8.0 16.1 0.00 0.05 0.05 51 1014.5